Regional Weather Roundup
Issued by NWS Cleveland, OH

Home | Current Version | Previous Version | Graphics & Text | Print | Product List | Glossary On
Versions: 1 2 3 4 5 6 7 8 9 10 11 12 13 14 15 16 17 18 19 20 21 22 23 24 25 26 27 28 29 30 31 32 33 34 35 36 37 38 39 40 41 42 43 44 45 46 47 48 49 50
000
ASUS41 KCLE 071110
RWRCLE
OHIO REGIONAL WEATHER ROUNDUP
NATIONAL WEATHER SERVICE WILMINGTON, OH
700 AM EDT TUE JUL 07 2015

NOTE: "FAIR" INDICATES FEW OR NO CLOUDS BELOW 12,000 FEET WITH NO
SIGNIFICANT WEATHER AND/OR OBSTRUCTIONS TO VISIBILITY.

OHZ001>008-015>018-024>027-034-035-043-044-071200-
   NORTHWEST OHIO

CITY           SKY/WX    TMP DP  RH WIND       PRES   REMARKS
DEFIANCE       PTCLDY    74  70  87 S7        29.88F FOG
FINDLAY        PTCLDY    73  69  87 S9        29.92S FOG
TOLEDO EXPRESS MOCLDY    73  69  87 S7        29.88S
TOLEDO EXEC    MOCLDY    73  67  81 S9        29.90S
LIMA           MOCLDY    72  69  90 S9        29.93F
$$

OHZ009>014-019>023-028>033-038-089-071200-
   NORTHEAST OHIO

CITY           SKY/WX    TMP DP  RH WIND       PRES   REMARKS
CLE-HOPKINS    CLOUDY    71  64  78 S10       29.97S
CLE-LAKEFRONT  MOCLDY    74  64  71 S13       29.93S
CUY CO. ARPT   MOCLDY    73  66  78 S12       29.96
LORAIN-ELYRIA  MOCLDY    69  64  84 S8        29.95S HAZE
ASHTABULA      CLEAR     67  65  93 S8        29.98S
AKRON-CANTON   MOCLDY    69  64  84 S9        30.00S HAZE
WOOSTER        PTCLDY    66  64  93 VRB7      30.00S FOG
MANSFIELD      PTCLDY    69  67  93 S9        29.98F FOG
YOUNGSTOWN     PTCLDY    67  64  90 S6        30.00S FOG
$$

OHZ042-051>053-060>062-070>072-077>081-071200-
  SOUTHWEST OHIO

CITY           SKY/WX    TMP DP  RH WIND       PRES   REMARKS
CINC-COVINGTON MOCLDY    73  70  90 S7        29.99S
CINC-LUNKEN    MOCLDY    71  70  96 CALM      29.99S
HAMILTON       CLOUDY    76  71  85 VRB3      29.99R
DAYTON         CLOUDY    75  71  87 SW12      29.98S
WRIGHT-PAT AFB CLOUDY    73  70  92 S8        29.97S
DAYTON GENERAL CLOUDY    73  70  90 S8        29.98S
WILMINGTON     CLOUDY    71  68  90 S8        30.00S FOG
$$

OHZ036-037-039>041-045>050-054>059-063>069-073>076-082>088-071200-
  CENTRAL AND SOUTHEAST OHIO

CITY           SKY/WX    TMP DP  RH WIND       PRES   REMARKS
COLUMBUS       MOCLDY    71  67  87 S8        29.99S FOG
OSU AIRPORT    PTCLDY    71  67  87 S8        29.98F FOG
BOLTON FIELD   PTCLDY    68  67  98 S5        30.00S FOG
RICKENBACK AFB MOCLDY    69  67  92 S8        29.99S
NEWARK         CLEAR     67  65  93 CALM      30.00F FOG
MARION         MOCLDY    71  67  87 S9        29.97F FOG
LANCASTER      PTCLDY    71  67  87 S5        30.01S FOG
ZANESVILLE     CLEAR     67  64  90 S5        30.02S FOG
NEW PHILLY     PTCLDY    67  66  97 SE5       30.02  FOG
$$



USA.gov is the U.S. government's official web portal to all federal, state and local government web resources and services.